Regional Weather Roundup
Issued by NWS Newport/Morehead, NC

Current Version | Previous Version | Graphics & Text | Print | Product List | Glossary Off
Versions: 1 2 3 4 5 6 7 8 9 10 11 12 13 14 15 16 17 18 19 20 21 22 23 24 25 26 27 28 29 30 31 32 33 34 35 36 37 38 39 40 41 42 43 44 45 46 47 48 49 50

000
ASUS42 KMHX 212322
RWRMHX
WEATHER ROUNDUP FOR EASTERN NORTH CAROLINA
NATIONAL WEATHER SERVICE NEWPORT/MOREHEAD CITY NC
700 PM EDT TUE OCT 21 2014

NOTE: "FAIR" INDICATES FEW OR NO CLOUDS BELOW 12,000 FEET
WITH NO SIGNIFICANT WEATHER AND/OR OBSTRUCTIONS TO VISIBILITY

NCZ015>017-031-032-045>047-102-103-220000-
NORTH COAST

CITY           SKY/WX    TMP DP  RH WIND       PRES   REMARKS
EDENTON        MOCLDY    62  55  79 CALM      29.84S
ELIZABETH CITY CLEAR     68  51  54 W3        29.84R
KITTY HAWK     CLOUDY    67  57  70 SW6       29.84R
MANTEO         PTCLDY    67  60  78 S9        29.85R

$$

NCZ045>047-081-094-103-104-220000-
CENTRAL COAST

CITY           SKY/WX    TMP DP  RH WIND       PRES   REMARKS
FRISCO         CLEAR     70  60  70 SW10      29.85R
SWANQUARTER      N/A     70 N/A N/A SW9G15    29.79S

$$

NCZ095-097-098-100-101-220000-
SOUTHERN COAST

CITY           SKY/WX    TMP DP  RH WIND       PRES   REMARKS
BEAUFORT       CLEAR     68  59  73 SW6       29.85R
CEDAR ISLAND     N/A     66 N/A N/A S5        29.88S
JACKSONVILLE   MOCLDY    67  60  78 S5        29.84R
PINEY ISLAND   CLEAR     68  58  70 S6        29.84S
WILMINGTON     MOCLDY    69  57  65 SW7       29.86R


$$

NCZ011>013-027>030-043-044-078>080-089-090>093-098-220000-
COASTAL PLAIN

CITY           SKY/WX    TMP DP  RH WIND       PRES   REMARKS
AHOSKIE        MOCLDY    60  56  85 CALM      29.85S
CLINTON        PTCLDY    65  58  77 CALM      29.85R
ELIZABETHTOWN  MOCLDY    65  55  71 CALM      29.86R
GOLDSBORO      CLOUDY    66  60  81 W1        29.83R
GREENVILLE     PTCLDY    64  57  77 CALM      29.87S
HAVELOCK       PTCLDY    67  58  72 S5        29.85S
KENANSVILLE    CLOUDY    61  55  81 CALM      29.86R
KINSTON        PTCLDY    61  57  88 CALM      29.85R
NEW BERN       MOCLDY    67  60  78 S3        29.86R
RICHLANDS      PTCLDY    61  54  77 CALM      29.86R
ROCKY MOUNT    CLOUDY    63  57  81 CALM      29.85R
WASHINGTON     CLEAR     62  54  75 CALM      29.85R
WHITEVILLE     PTCLDY    64  54  69 CALM      29.86R

$$

AMZ130-135-150-152-154-156-158-170-250-252-270-ANZ085-086-088-633-658-670-220000-
MARINE OBSERVATIONS

STATION/POSITION TIME  TEMP    WIND        PRES    WAVE   SWELL
                       AIR SEA DIR/SP/G            HT/PER HT/PER
                 (UTC) (F)     (DEG/KT/KT) (MB)    (FT/S) (FT/S)
CHESAPEAKE LIGHT 2300   67      90/  5/  5 1010.9
64 E VA BEACH    2300   69 69  210/  8/ 10 1009.9    3/ 9   2/ 9
DUCK             2300   69 69  190/  5/  6 1009.6
2 E DUCK         2300                        N/A     2/ 9   2/13
10 NE DUCK       2300      71                N/A     2/11   2/11
OREGON INLET     2300   69 68  180/ 10/ 13 1010.6
13E OREGON INLT  2300      74                N/A     3/10   2/11
HATTERAS CG      2300   71 72  240/  9/ 13 1011.2
DIAMOND BUOY     2300   73     220/ 16/ 19 1010.4    3/ 9   2/ 9
17 S OCRACOKE    2200          VRB 14/ 17  1010.4
CAPE LOOKOUT     2300   71     220/  7/  9 1010.7
BEAUFORT LAB     2300   71 71  220/  5/  8 1010.1
30 SE NEW RIVER  2300   73 76  220/ 14/ 16 1010.2    2/ 8   2/ 8
5 SE WRIGHTSVLE  2300   69 73  240/ 16/ 17   N/A
225 S CAPE HAT   2205   77 80  200/  8/ 10 1012.5    3/ 8   3/ 8
41 SE CHARLESTON 2300   74 79  240/ 12/ 16 1011.5    2/ 8   2/ 8

$$



USA.gov is the U.S. government's official web portal to all federal, state and local government web resources and services.